CW5757 Weather Reports


Display with metric or nautical units.
time (UTC)temp
F
wind
direction
speed
MPH
gust
MPH
rain 1hr
in
rain 24hr
in
rain mn
in
humidity
%
barometer
mb
20260502204911 67 204 0.0 0.0 0.00 0.00 0.00 58 1010.8
20260502204411 67 204 0.0 0.0 0.00 0.00 0.00 59 1010.8
20260502203911 67 204 0.0 0.0 0.00 0.00 0.00 57 1010.8
20260502203411 67 204 0.0 0.0 0.00 0.00 0.00 58 1010.9
20260502202911 67 204 0.0 0.0 0.00 0.00 0.00 58 1010.9
20260502202411 67 204 0.0 0.0 0.00 0.00 0.00 58 1010.9
20260502201911 67 204 0.0 0.0 0.00 0.00 0.00 57 1011.0
20260502201411 67 204 0.0 0.0 0.00 0.00 0.00 58 1011.1
20260502200911 67 204 0.0 0.0 0.00 0.00 0.00 58 1011.1
20260502200411 67 204 0.0 0.0 0.00 0.00 0.00 59 1011.1
20260502195911 67 204 0.0 0.0 0.00 0.00 0.00 57 1011.1
20260502195411 68 204 0.0 0.0 0.00 0.00 0.00 56 1011.1
20260502194916 68 204 0.0 0.0 0.00 0.00 0.00 55 1011.1
20260502194423 68 204 0.0 0.0 0.00 0.00 0.00 54 1011.2
20260502193911 69 204 0.0 0.0 0.00 0.00 0.00 53 1011.3
20260502193411 69 204 0.0 0.0 0.00 0.00 0.00 54 1011.3
20260502192911 69 204 0.0 0.0 0.00 0.00 0.00 56 1011.3
20260502192411 68 204 0.0 0.0 0.00 0.00 0.00 56 1011.3
20260502191911 68 204 0.0 0.0 0.00 0.00 0.00 60 1011.4
20260502191411 66 204 0.0 0.0 0.00 0.00 0.00 62 1011.5
20260502190911 66 204 0.0 0.0 0.00 0.00 0.00 63 1011.5
20260502190411 66 204 0.0 0.0 0.00 0.00 0.00 64 1011.7
20260502185911 65 204 0.0 0.0 0.00 0.00 0.00 62 1011.7
20260502185411 65 204 0.0 0.0 0.00 0.00 0.00 63 1011.8
20260502184911 65 204 0.0 0.0 0.00 0.00 0.00 64 1011.7
20260502184411 65 204 0.0 0.0 0.00 0.00 0.00 65 1011.7
20260502183911 64 204 0.0 0.0 0.00 0.00 0.00 66 1011.7
20260502183411 64 204 0.0 0.0 0.00 0.00 0.00 65 1011.8
20260502182540 65 204 0.0 0.0 0.00 0.00 0.00 65 1012.0
20260502181655 64 204 0.0 0.0 0.00 0.00 0.00 66 1012.0
20260502180742 64 204 0.0 0.0 0.00 0.00 0.00 66 1012.2
20260502170328 63 204 0.0 0.0 0.00 0.00 0.00 66 1012.5
20260502164318 62 204 0.0 0.0 0.00 0.00 0.00 65 1012.5
20260502163818 62 204 0.0 0.0 0.00 0.00 0.00 66 1012.6
20260502163318 62 204 0.0 0.0 0.00 0.00 0.00 66 1012.7
20260502162818 62 204 0.0 0.0 0.00 0.00 0.00 67 1012.8
20260502162318 62 204 0.0 0.0 0.00 0.00 0.00 66 1012.7
20260502161818 62 204 0.0 0.0 0.00 0.00 0.00 67 1012.6
20260502161317 62 204 0.0 0.0 0.00 0.00 0.00 68 1012.6
20260502160818 62 204 0.0 0.0 0.00 0.00 0.00 66 1012.7
20260502160318 62 204 0.0 0.0 0.00 0.00 0.00 66 1012.7
20260502152318 60 204 0.0 0.0 0.00 0.00 0.00 76 1013.0
20260502151818 60 204 0.0 0.0 0.00 0.00 0.00 76 1012.9
20260502151317 59 204 0.0 0.0 0.00 0.00 0.00 78 1012.9
20260502150818 59 204 0.0 0.0 0.00 0.00 0.00 79 1012.8
20260502150318 59 204 0.0 0.0 0.00 0.00 0.00 81 1012.7
20260502130323 56 204 0.0 0.0 0.00 0.00 0.00 85 1012.1
20260502123318 56 204 0.0 0.0 0.00 0.00 0.00 85 1012.2
20260502122817 56 204 0.0 0.0 0.00 0.00 0.00 85 1011.9
20260502122318 56 204 0.0 0.0 0.00 0.00 0.00 85 1011.6
20260502121818 56 204 0.0 0.0 0.00 0.00 0.00 84 1011.4
20260502121318 56 204 0.0 0.0 0.00 0.00 0.00 84 1011.5
20260502120817 56 204 0.0 0.0 0.00 0.00 0.00 84 1011.8
20260502120318 56 204 0.0 0.0 0.00 0.00 0.00 84 1011.9
20260502115818 56 204 0.0 0.0 0.00 0.00 0.00 84 1012.1
20260502115318 55 204 0.0 0.0 0.00 0.00 0.00 84 1012.3
20260502114818 55 204 0.0 0.0 0.00 0.00 0.00 84 1012.4
20260502114318 55 204 0.0 0.0 0.00 0.00 0.00 84 1012.5
20260502113817 55 204 0.0 0.0 0.00 0.00 0.00 84 1012.4
20260502113318 55 204 0.0 0.0 0.00 0.00 0.00 84 1012.4
20260502112818 55 204 0.0 0.0 0.00 0.00 0.00 84 1012.2
20260502112318 56 204 0.0 0.0 0.00 0.00 0.00 84 1012.3
20260502111823 55 204 0.0 0.0 0.00 0.00 0.00 84 1012.3
20260502111329 56 204 0.0 0.0 0.00 0.00 0.00 84 1012.1
20260502110817 56 204 0.0 0.0 0.00 0.00 0.00 84 1011.7
20260502110317 56 204 0.0 0.0 0.00 0.00 0.00 84 1011.6
20260502105818 56 204 0.0 0.0 0.00 0.00 0.00 84 1011.2
20260502105318 56 204 0.0 0.0 0.00 0.00 0.00 84 1011.1
20260502104817 56 204 0.0 0.0 0.00 0.00 0.00 84 1011.1
20260502104318 56 204 0.0 0.0 0.00 0.00 0.00 84 1010.8
20260502103653 56 204 0.0 0.0 0.00 0.00 0.00 83 1010.8
20260502103158 56 204 0.0 0.0 0.00 0.00 0.00 83 1011.0
20260502102705 56 204 0.0 0.0 0.00 0.00 0.00 83 1011.1
20260502102153 56 204 0.0 0.0 0.00 0.00 0.00 83 1010.9
20260502101658 56 204 0.0 0.0 0.00 0.00 0.00 83 1010.8
20260502101205 56 204 0.0 0.0 0.00 0.00 0.00 83 1010.7
20260502100653 56 204 0.0 0.0 0.00 0.00 0.00 83 1010.7
20260502100153 56 204 0.0 0.0 0.00 0.00 0.00 83 1010.9
20260502091359 56 204 0.0 0.0 0.00 0.00 0.00 82 1011.1
20260502090905 56 204 0.0 0.0 0.00 0.00 0.00 82 1011.1
20260502090353 56 204 0.0 0.0 0.00 0.00 0.00 82 1011.1
20260502071353 0 0.0 0.0 0.00 0.00 0.00 1011.9
20260502070853 0 0.0 0.0 0.00 0.00 0.00 1011.7
20260502070353 0 0.0 0.0 0.00 0.00 0.00 1011.7
20260502065853 0 0.0 0.0 0.00 0.00 0.00 1011.6
20260502065353 0 0.0 0.0 0.00 0.00 0.00 1011.5
20260502064856 0 0.0 0.0 0.00 0.00 0.00 1011.5
20260502064404 0 0.0 0.0 0.00 0.00 0.00 1011.4
20260502063910 0 0.0 0.0 0.00 0.00 0.00 1011.5
20260502063417 0 0.0 0.0 0.00 0.00 0.00 1011.5
20260502062853 0 0.0 0.0 0.00 0.00 0.00 1011.5
20260502062353 0 0.0 0.0 0.00 0.00 0.00 1011.6
20260502061853 0 0.0 0.0 0.00 0.00 0.00 1011.6
20260502061353 0 0.0 0.0 0.00 0.00 0.00 1011.5
20260502060853 0 0.0 0.0 0.00 0.00 0.00 1011.7
20260502060353 0 0.0 0.0 0.00 0.00 0.00 1011.6
20260502055853 0 0.0 0.0 0.00 0.00 0.00 1011.6
20260502055353 57 0.0 0.0 0.00 0.00 0.00 1011.6
20260502054853 57 204 0.0 0.0 0.00 0.00 0.00 80 1011.7
20260502054353 57 204 0.0 0.0 0.00 0.00 0.00 80 1011.7
20260502053858 57 204 0.0 0.0 0.00 0.00 0.00 80 1011.8
20260502053405 58 204 0.0 0.0 0.00 0.00 0.00 80 1011.9
20260502052853 58 204 0.0 0.0 0.00 0.00 0.00 80 1011.9
20260502052353 58 204 0.0 0.0 0.00 0.00 0.00 80 1011.9
20260502051858 58 204 0.0 0.0 0.00 0.00 0.00 80 1012.0
20260502051405 58 204 0.0 0.0 0.00 0.00 0.00 80 1012.2
20260502050853 58 204 0.0 0.0 0.00 0.00 0.00 80 1012.1
20260502050353 58 204 0.0 0.0 0.00 0.00 0.00 80 1011.9
20260502045853 58 204 0.0 0.0 0.00 0.00 0.00 79 1012.2
20260502045353 58 204 0.0 0.0 0.00 0.00 0.00 79 1012.3
20260502044853 58 0.0 0.0 0.00 0.00 0.00 1012.2
20260502044353 0 0.0 0.0 0.00 0.00 0.00 1012.4
20260502043853 0 0.0 0.0 0.00 0.00 0.00 1012.6
20260502043353 0 0.0 0.0 0.00 0.00 0.00 1012.6
20260502042853 0 0.0 0.0 0.00 0.00 0.00 1012.6
20260502042356 0 0.0 0.0 0.00 0.00 0.00 1012.6
20260502041903 0 0.0 0.0 0.00 0.00 0.00 1012.6
20260502041410 0 0.0 0.0 0.00 0.00 0.00 1012.7
20260502040905 0 0.0 0.0 0.00 0.00 0.00 1012.6
20260502040353 0 0.0 0.0 0.00 0.00 0.00 1012.6
20260502035853 0 0.0 0.0 0.00 0.00 0.00 1012.5
20260502035353 0 0.0 0.0 0.00 0.00 0.00 1012.5
20260502034853 0 0.0 0.0 0.00 0.00 0.00 1012.5
20260502034353 0 0.0 0.0 0.00 0.00 0.00 1012.7
20260502033858 0 0.0 0.0 0.00 0.00 0.00 1012.8
20260502033405 0 0.0 0.0 0.00 0.00 0.00 1012.9
20260502032853 0 0.0 0.0 0.00 0.00 0.00 1012.9
20260502032353 0 0.0 0.0 0.00 0.00 0.00 1012.9
20260502031853 0 0.0 0.0 0.00 0.00 0.00 1013.0
20260502031353 0 0.0 0.0 0.00 0.00 0.00 1013.0
20260502030853 0 0.0 0.0 0.00 0.00 0.00 1013.1
20260502030353 0 0.0 0.0 0.00 0.00 0.00 1013.1
20260502025854 0 0.0 0.0 0.00 0.00 0.00 1013.0
20260502025401 0 0.0 0.0 0.00 0.00 0.00 1013.0
20260502024908 0 0.0 0.0 0.00 0.00 0.00 1013.0
20260502024415 0 0.0 0.0 0.00 0.00 0.00 1012.9
20260502023922 0 0.0 0.0 0.00 0.00 0.00 1012.8
20260502023405 0 0.0 0.0 0.00 0.00 0.00 1012.9
20260502022853 0 0.0 0.0 0.00 0.00 0.00 1012.8
20260502022353 0 0.0 0.0 0.00 0.00 0.00 1012.8
20260502021858 0 0.0 0.0 0.00 0.00 0.00 1012.8
20260502021405 0 0.0 0.0 0.00 0.00 0.00 1012.9
20260502020853 0 0.0 0.0 0.00 0.00 0.00 1013.0
20260502020358 0 0.0 0.0 0.00 0.00 0.00 1012.9
20260502015905 0 0.0 0.0 0.00 0.00 0.00 1012.9
20260502015353 0 0.0 0.0 0.00 0.00 0.00 1012.8
20260502014853 0 0.0 0.0 0.00 0.00 0.00 1012.6
20260502014356 0 0.0 0.0 0.00 0.00 0.00 1012.5
20260502013903 0 0.0 0.0 0.00 0.00 0.00 1012.4
20260502013410 0 0.0 0.0 0.00 0.00 0.00 1012.6
20260502012905 0 0.0 0.0 0.00 0.00 0.00 1012.6
20260502012353 0 0.0 0.0 0.00 0.00 0.00 1012.6
20260502011858 0 0.0 0.0 0.00 0.00 0.00 1012.6
20260502011405 0 0.0 0.0 0.00 0.00 0.00 1012.6
20260502010853 0 0.0 0.0 0.00 0.00 0.00 1012.6
20260502010353 0 0.0 0.0 0.00 0.00 0.00 1012.6
20260502005853 0 0.0 0.0 0.00 0.00 0.00 1012.6
20260502005353 0 0.0 0.0 0.00 0.00 0.00 1012.6
20260502004853 0 0.0 0.0 0.00 0.00 0.00 1012.5
20260502004353 0 0.0 0.0 0.00 0.00 0.00 1012.5
20260502003853 0 0.0 0.0 0.00 0.00 0.00 1012.3
20260502003234 0 0.0 0.0 0.00 0.00 0.00 1012.1
20260502002734 0 0.0 0.0 0.00 0.00 0.00 1012.0
20260502002234 0 0.0 0.0 0.00 0.00 0.00 1011.9
20260502001734 64 204 0.0 0.0 0.00 0.00 0.00 1011.9
20260502001234 64 204 0.0 0.0 0.00 0.00 0.00 65 1011.9
20260502000734 64 204 0.0 0.0 0.00 0.00 0.00 65 1012.1
20260502000234 64 204 0.0 0.0 0.00 0.00 0.00 65 1011.9
20260501235734 64 204 0.0 0.0 0.00 0.00 0.00 66 1011.9
20260501235234 64 204 0.0 0.0 0.00 0.00 0.00 65 1011.9
20260501234739 64 204 0.0 0.0 0.00 0.00 0.00 65 1011.8
20260501234246 64 204 0.0 0.0 0.00 0.00 0.00 63 1012.0
20260501233734 65 204 0.0 0.0 0.00 0.00 0.00 63 1011.9
20260501233234 65 204 0.0 0.0 0.00 0.00 0.00 64 1011.9
20260501232734 65 204 0.0 0.0 0.00 0.00 0.00 64 1012.0
20260501232234 65 204 0.0 0.0 0.00 0.00 0.00 63 1012.0
20260501231734 65 204 0.0 0.0 0.00 0.00 0.00 61 1011.8
20260501231234 65 204 0.0 0.0 0.00 0.00 0.00 61 1011.5
20260501230734 65 204 0.0 0.0 0.00 0.00 0.00 61 1011.6
20260501225813 66 204 0.0 0.0 0.00 0.00 0.00 60 1011.5
20260501225113 66 204 0.0 0.0 0.00 0.00 0.00 60 1011.5
20260501224601 66 204 0.0 0.0 0.00 0.00 0.00 60 1011.4
20260501224106 66 204 0.0 0.0 0.00 0.00 0.00 60 1011.4
20260501223613 66 204 0.0 0.0 0.00 0.00 0.00 60 1011.5
20260501223101 66 204 0.0 0.0 0.00 0.00 0.00 60 1011.6
20260501222600 66 204 0.0 0.0 0.00 0.00 0.00 61 1011.6
20260501222101 66 204 0.0 0.0 0.00 0.00 0.00 61 1011.8
20260501221601 66 204 0.0 0.0 0.00 0.00 0.00 60 1012.0
20260501221100 66 204 0.0 0.0 0.00 0.00 0.00 59 1012.1
20260501220601 0 0.0 0.0 0.00 0.00 0.00 1012.1
20260501220101 0 0.0 0.0 0.00 0.00 0.00 1012.1
20260501215600 66 0.0 0.0 0.00 0.00 0.00 1012.1
20260501215100 66 204 0.0 0.0 0.00 0.00 0.00 57 1012.1
20260501214601 66 204 0.0 0.0 0.00 0.00 0.00 57 1012.3
20260501214101 66 204 0.0 0.0 0.00 0.00 0.00 57 1012.2
20260501213134 66 204 0.0 0.0 0.00 0.00 0.00 57 1012.3
20260501212641 66 204 0.0 0.0 0.00 0.00 0.00 55 1012.4
20260501212148 66 204 0.0 0.0 0.00 0.00 0.00 56 1012.3
20260501211624 66 204 0.0 0.0 0.00 0.00 0.00 55 1012.4
20260501211124 66 204 0.0 0.0 0.00 0.00 0.00 55 1012.4
20260501210624 66 204 0.0 0.0 0.00 0.00 0.00 55 1012.6
20260501210124 66 204 0.0 0.0 0.00 0.00 0.00 55 1012.6
20260501205624 66 204 0.0 0.0 0.00 0.00 0.00 55 1012.5